[[{"header":{"parameterUnit":"m.s-1","parameterCategory":1,"la1":30.2991,"la2":30.254,"lo1":-89.0895,"lo2":-89.0444,"dy":0.0017,"dx":0.0017,"nx":28,"ny":28,"refTime":"2024-04-15T09:00:00:Z","depth":0,"parameterNumber":2,"parameterNumberName":"U-component_of_WINDS"},"data":[0,0,0,0,0,0,0,0,0,0,0,0,0,0,0,0,0,0,0,0,0,0,0,0,0,0,0,0,0,0,0,0,0,0,0,0,0,0,0,0,0,0,0,0,0,0,0,0,0,0,0,0,0,0,0,0,0,0,-5.8447,-5.8448,0,-5.8542,-5.8543,-5.8544,-5.8514,-5.8512,-5.851,-5.8508,-5.86,-5.8604,-5.8608,0,0,0,0,0,0,0,0,0,0,0,0,0,-5.8237,-5.8241,-5.8447,-5.8448,-5.845,-5.8542,-5.8543,-5.8544,-5.8514,-5.8512,-5.851,-5.8507,-5.8598,-5.8603,-5.8608,0,0,0,0,0,0,0,0,0,0,0,0,0,-5.8329,-5.8242,-5.8447,-5.8446,-5.8447,-5.8541,-5.8543,-5.8545,-5.8515,-5.8512,-5.8509,-5.8506,-5.8597,-5.8603,-5.8609,-5.8709,0,0,-5.8629,-5.8632,0,0,0,0,0,0,0,0,-5.8324,-5.8337,-5.8445,-5.8446,-5.8447,-5.8513,-5.8502,-5.8599,-5.8516,-5.8489,-5.8508,-5.8505,-5.8573,-5.8581,-5.8605,-5.8713,-5.8717,-5.8629,-5.8633,-5.8636,-5.8638,0,0,0,0,0,0,0,-5.8318,-5.8333,-5.8484,-5.8447,-5.8448,-5.8439,-5.8449,-5.8521,-5.8546,-5.8491,-5.8489,-5.8501,-5.8573,-5.8599,-5.8607,-5.8718,-5.8629,-5.8635,-5.8639,-5.8641,-5.8912,-5.8915,0,0,0,0,0,0,-5.8311,-5.8328,-5.8481,-5.8487,-5.8377,-5.8446,-5.8457,-5.8495,-5.8546,-5.855,-5.8503,-5.8499,-5.859,-5.86,-5.861,-5.8729,-5.8636,-5.8642,-5.8646,-5.8909,-5.8913,-5.8916,0,0,0,0,0,0,-5.8307,-5.8325,-5.8478,-5.8407,-5.8426,-5.8453,-5.8496,-5.8498,-5.8524,-5.8555,-5.8559,-5.8526,-5.8588,-5.8601,-5.8685,-5.8731,-5.8645,-5.8651,-5.8905,-5.891,-5.8915,-5.8967,0,0,0,0,0,0,-5.8301,-5.8324,-5.8363,-5.8408,-5.843,-5.8552,-5.8499,-5.8502,-5.8536,-5.8532,-5.8577,-5.8581,-5.8586,-5.8675,-5.8691,-5.8739,-5.8656,-5.8901,-5.8907,-5.8913,-5.8961,-5.8973,-5.8984,0,0,0,0,0,-5.8294,-5.8373,-5.8365,-5.8383,-5.8479,-5.8554,-5.8566,-5.8572,-5.854,-5.8579,-5.8599,-5.858,-5.8725,-5.8684,-5.8702,-5.8752,-5.8898,-5.8905,-5.8913,-5.8956,-5.8971,-5.8983,0,0,0,0,0,0,-5.8329,-5.8378,-5.837,-5.8467,-5.8507,-5.8549,-5.8597,-5.8588,-5.8636,-5.8629,-5.8633,-5.8644,-5.8729,-5.875,-5.8703,-5.8851,-5.8806,-5.8818,-5.8834,-5.8848,-5.8859,-5.885,-5.8661,0,0,0,0,0,-5.8349,-5.8408,-5.8447,-5.8528,-5.8549,-5.8571,-5.8603,-5.8605,-5.8646,-5.8662,-5.8688,-5.8727,-5.8781,-5.8816,-5.8868,-5.8966,-5.8974,-5.9009,-5.9021,-5.903,-5.9038,-5.909,-5.9105,-5.8941,-5.8941,-5.8941,0,0,-5.8389,-5.8423,-5.8459,-5.8536,-5.8567,-5.8626,-5.8584,-5.8649,-5.8692,-5.8671,-5.8751,-5.8772,-5.8816,-5.8907,-5.8948,-5.8926,-5.9086,-5.9039,-5.9046,-5.9049,-5.9099,-5.9115,-5.9128,-5.8946,-5.8945,-5.8944,0,0,-5.8491,-5.8524,-5.8595,-5.8628,-5.8677,-5.8691,-5.8708,-5.8753,-5.8766,-5.8848,-5.8833,-5.8885,-5.8979,-5.901,-5.9038,-5.9156,-5.914,-5.9173,-5.923,-5.928,-5.9293,-5.9304,-5.9344,-5.9358,-5.9182,-5.9183,-5.9183,0,-5.8533,-5.8623,-5.8632,-5.8698,-5.8731,-5.8719,-5.8789,-5.882,-5.8883,-5.8906,-5.8882,-5.9,-5.9029,-5.9126,-5.9155,-5.918,-5.9197,-5.9165,-5.9291,-5.9303,-5.9313,-5.935,-5.9366,-5.9186,-5.9186,-5.9185,-5.9185,0,-5.8671,-5.8734,-5.8786,-5.8848,-5.8888,-5.8956,-5.8974,-5.9014,-5.9013,-5.9029,-5.9112,-5.9147,-5.9205,-5.9229,-5.9228,-5.9327,-5.9312,-5.929,-5.9244,-5.9332,-5.9367,-5.9382,-5.9191,-5.919,-5.9189,-5.9188,0,0,-5.8794,-5.8864,-5.8882,-5.891,-5.8964,-5.9012,-5.908,-5.9139,-5.9171,-5.9217,-5.9271,-5.9353,-5.9333,-5.9366,-5.9369,-5.9414,-5.9502,-5.9386,-5.9387,-5.9403,-5.961,-5.9623,-5.964,-5.9494,-5.9497,-5.9499,-5.9605,0,-5.8898,-5.9018,-5.9029,-5.9136,-5.9193,-5.9183,-5.9242,-5.9281,-5.9299,-5.9349,-5.9369,-5.9426,-5.9397,-5.9416,-5.9461,-5.9482,-5.9543,-5.9475,-5.9542,-5.9544,-5.9527,-5.9659,-5.9673,-5.9771,-5.9619,-5.9622,-5.9624,0,-5.9034,-5.9085,-5.9197,-5.9245,-5.9269,-5.9322,-5.9377,-5.9426,-5.947,-5.948,-5.9518,-5.9516,-5.9584,-5.954,-5.9633,-5.9586,-5.9615,-5.963,-5.9634,-5.9637,-5.9586,-5.9661,-5.9803,-5.9816,-5.9646,-5.9644,-5.9642,0,-5.9108,-5.9205,-5.9285,-5.931,-5.9367,-5.9404,-5.943,-5.9472,-5.9507,-5.9555,-5.9578,-5.9633,-5.9663,-5.9705,-5.9717,-5.9685,-5.9809,-5.9767,-5.9817,-5.9817,-5.9839,-5.9837,-5.9984,-5.9865,-5.9865,-5.9865,-5.9865,0,-5.922,-5.9289,-5.9319,-5.9367,-5.9444,-5.9457,-5.9532,-5.9555,-5.9593,-5.9645,-5.9641,-5.969,-5.9705,-5.9756,-5.9766,-5.984,-5.9855,-5.9863,-5.9864,-5.9861,-5.9859,-5.9876,-5.9868,-5.9869,-5.9868,-5.9867,-5.9867,0,-5.9313,-5.9337,-5.9423,-5.9472,-5.9486,-5.954,-5.9581,-5.9627,-5.9646,-5.9712,-5.9728,-5.9757,-5.9817,-5.9835,-5.9907,-5.9914,-6.0,-5.9997,-5.9985,-5.9984,-6.0032,-6.0026,-6.0191,-6.0213,-6.0084,-6.0085,-6.0086,0,-5.9381,-5.9434,-5.949,-5.9525,-5.9553,-5.961,-5.9647,-5.9663,-5.97,-5.9756,-5.9795,-5.9856,-5.9904,-6.0,-6.0026,-6.0081,-6.0077,-6.0132,-6.0085,-6.008,-6.0074,-6.0069,-6.0073,-6.0139,-6.014,-6.0141,-6.0142,0,-5.9499,-5.9508,-5.9562,-5.962,-5.9664,-5.971,-5.9754,-5.9783,-5.9806,-5.9848,-5.9911,-5.9949,-6.0023,-6.0082,-6.0139,-6.0163,-6.0155,-6.0158,-6.0171,-6.0166,-6.0156,-6.0159,-6.0005,-6.0152,-6.0151,-6.015,-6.015,-6.015,-5.9579,-5.9625,-5.9672,-5.9732,-5.9768,-5.9809,-5.9855,-5.9881,-5.9934,-5.9997,-6.0004,-6.0071,-6.0114,-6.019,-6.0218,-6.0269,-6.0253,-6.0274,-6.0279,-6.0282,-6.0285,-6.0152,-6.028,-6.028,-6.028,-6.0279,-6.0279,0,-5.9693,-5.9724,-5.9779,-5.9842,-5.9889,-5.9882,-5.9931,-5.997,-6.0029,-6.0072,-6.0121,-6.0192,-6.025,-6.0283,-6.034,-6.0375,-6.0373,-6.0389,-6.0384,-6.039,-6.0298,-6.0278,-6.039,-6.039,-6.039,-6.039,-6.039,-6.039,-5.9758,-5.9835,-5.9851,-5.9946,-5.9975,-6.0042,-6.007,-6.0109,-6.0143,-6.0223,-6.0272,-6.0294,-6.0332,-6.0393,-6.0445,-6.0453,-6.0473,-6.049,-6.0496,-6.0408,-6.0396,-6.0385,-6.0367,-6.0495,-6.0495,-6.0583,-6.0584,-6.0585]},{"header":{"parameterUnit":"m.s-1","parameterCategory":1,"la1":30.2991,"la2":30.254,"lo1":-89.0895,"lo2":-89.0444,"dy":0.0017,"dx":0.0017,"nx":28,"ny":28,"refTime":"2024-04-15T09:00:00:Z","depth":0,"parameterNumber":3,"parameterNumberName":"V-component_of_WINDS"},"data":[0,0,0,0,0,0,0,0,0,0,0,0,0,0,0,0,0,0,0,0,0,0,0,0,0,0,0,0,0,0,0,0,0,0,0,0,0,0,0,0,0,0,0,0,0,0,0,0,0,0,0,0,0,0,0,0,0,0,4.4534,4.4535,0,4.4637,4.4638,4.4639,4.4691,4.4691,4.4692,4.4692,4.4794,4.4797,4.48,0,0,0,0,0,0,0,0,0,0,0,0,0,4.4381,4.4383,4.4534,4.4535,4.4536,4.4637,4.4638,4.464,4.4691,4.4691,4.4692,4.4692,4.4793,4.4797,4.48,0,0,0,0,0,0,0,0,0,0,0,0,0,4.4462,4.4384,4.4533,4.4574,4.4579,4.4637,4.4638,4.464,4.4691,4.4691,4.4692,4.4692,4.4792,4.4796,4.48,4.4824,0,0,4.4813,4.4814,0,0,0,0,0,0,0,0,4.4457,4.4467,4.4567,4.4572,4.4577,4.4652,4.4622,4.4702,4.4691,4.4649,4.4692,4.4692,4.4747,4.4754,4.4774,4.4829,4.4833,4.4813,4.4816,4.4817,4.4818,0,0,0,0,0,0,0,4.4451,4.4463,4.4574,4.4568,4.4574,4.4587,4.4599,4.4637,4.4696,4.4652,4.4656,4.4668,4.4749,4.4769,4.4776,4.4835,4.4813,4.4817,4.4819,4.4821,4.4918,4.4918,0,0,0,0,0,0,4.4439,4.4458,4.4571,4.4578,4.4516,4.459,4.4603,4.4627,4.4696,4.4706,4.4668,4.467,4.4763,4.4772,4.478,4.4815,4.4817,4.4821,4.4823,4.4918,4.4918,4.4918,0,0,0,0,0,0,4.4436,4.4449,4.4567,4.4519,4.4535,4.4593,4.462,4.4629,4.465,4.4708,4.4718,4.4678,4.4763,4.4774,4.4814,4.4819,4.4823,4.4827,4.4918,4.4918,4.4918,4.4883,0,0,0,0,0,0,4.4431,4.4447,4.4457,4.4519,4.4537,4.4599,4.462,4.4631,4.4657,4.4661,4.472,4.4729,4.4764,4.4807,4.4818,4.4825,4.483,4.4917,4.4918,4.4918,4.4884,4.4882,4.488,0,0,0,0,0,4.4426,4.4442,4.4457,4.4471,4.4551,4.4599,4.461,4.465,4.4657,4.4668,4.4705,4.4728,4.4817,4.4811,4.4823,4.4831,4.4917,4.4918,4.4918,4.4884,4.4882,4.488,0,0,0,0,0,0,4.4377,4.445,4.4469,4.4505,4.4546,4.4608,4.4622,4.4646,4.4684,4.4686,4.4734,4.4746,4.4782,4.481,4.4803,4.4859,4.4869,4.4872,4.484,4.4838,4.4836,4.4829,4.4833,0,0,0,0,0,4.4371,4.4405,4.4467,4.4493,4.4513,4.4564,4.4586,4.4614,4.4658,4.4675,4.4715,4.4756,4.4794,4.4817,4.4854,4.4888,4.4902,4.4899,4.4898,4.4896,4.4898,4.492,4.492,4.4919,4.4919,4.4919,0,0,4.4358,4.4403,4.4421,4.4485,4.4519,4.4554,4.4578,4.4612,4.4638,4.468,4.472,4.4751,4.48,4.4837,4.4855,4.4862,4.4901,4.4896,4.4894,4.4898,4.492,4.492,4.492,4.492,4.492,4.492,0,0,4.4353,4.4389,4.4416,4.4451,4.4504,4.4539,4.4545,4.4605,4.4627,4.4669,4.4702,4.4733,4.4796,4.483,4.4856,4.4866,4.4888,4.4876,4.4867,4.4888,4.4888,4.4888,4.4893,4.4895,4.4878,4.4878,4.4878,0,4.433,4.4383,4.4427,4.4461,4.4489,4.4529,4.4558,4.4589,4.4651,4.467,4.4676,4.4758,4.4793,4.484,4.4843,4.4862,4.4872,4.487,4.4884,4.4885,4.4886,4.4892,4.4893,4.4876,4.4876,4.4877,4.4877,0,4.4354,4.439,4.4406,4.4467,4.4496,4.4527,4.4575,4.46,4.4626,4.4659,4.4702,4.4746,4.4795,4.4808,4.4832,4.4859,4.4861,4.4875,4.4887,4.4884,4.489,4.4892,4.4874,4.4874,4.4875,4.4875,0,0,4.432,4.4406,4.4411,4.4441,4.4503,4.4532,4.4565,4.4614,4.4635,4.4677,4.4706,4.476,4.4774,4.4803,4.4832,4.485,4.4858,4.4863,4.4865,4.4861,4.4892,4.4882,4.4884,4.4873,4.4874,4.4874,4.4889,0,4.4324,4.4387,4.4428,4.4474,4.4509,4.455,4.4579,4.462,4.4653,4.4687,4.4723,4.4761,4.4776,4.4795,4.4814,4.4853,4.4865,4.4852,4.4901,4.4903,4.4889,4.4887,4.4876,4.4887,4.4891,4.4891,4.4892,0,4.4338,4.4381,4.443,4.4492,4.4508,4.4533,4.4583,4.4615,4.4664,4.4686,4.472,4.475,4.4787,4.4794,4.4847,4.4837,4.486,4.4882,4.4883,4.489,4.4898,4.4895,4.4891,4.4894,4.4896,4.4895,4.4895,0,4.431,4.438,4.442,4.4443,4.4515,4.4532,4.4563,4.4612,4.4639,4.4682,4.4701,4.4746,4.4772,4.4806,4.4848,4.4849,4.4896,4.4907,4.4917,4.4916,4.4925,4.4924,4.4927,4.4938,4.4938,4.4938,4.4938,0,4.4312,4.4341,4.4409,4.4433,4.4468,4.4515,4.4548,4.4582,4.4625,4.4657,4.4694,4.4723,4.4776,4.4811,4.4844,4.4883,4.4894,4.4913,4.4922,4.4911,4.4909,4.4927,4.4928,4.4938,4.4938,4.4938,4.4938,0,4.4287,4.4333,4.438,4.4445,4.4462,4.4485,4.454,4.4566,4.4601,4.4641,4.4654,4.4709,4.4753,4.4798,4.4856,4.4879,4.4917,4.4928,4.4902,4.4907,4.4914,4.4914,4.493,4.4935,4.4941,4.494,4.494,0,4.4285,4.4309,4.4378,4.4403,4.4433,4.4472,4.4501,4.4549,4.4577,4.4636,4.4655,4.4702,4.4742,4.4811,4.4856,4.4901,4.4914,4.4917,4.4921,4.491,4.4916,4.4915,4.4918,4.4915,4.4915,4.4915,4.4915,0,4.4278,4.4301,4.4342,4.4391,4.4425,4.4466,4.4509,4.4527,4.4583,4.4613,4.466,4.4691,4.4753,4.48,4.4851,4.4882,4.4908,4.4913,4.4918,4.4908,4.4892,4.4902,4.4899,4.4912,4.4913,4.4913,4.4913,4.4913,4.4266,4.4291,4.4343,4.4388,4.4426,4.4465,4.4493,4.4533,4.4573,4.4628,4.4654,4.4701,4.475,4.4822,4.4853,4.489,4.4897,4.4904,4.4906,4.4907,4.4906,4.4885,4.49,4.49,4.49,4.49,4.49,0,4.4263,4.4299,4.434,4.44,4.4435,4.4458,4.4506,4.4535,4.4576,4.4621,4.4661,4.4715,4.4761,4.481,4.4859,4.488,4.4893,4.4891,4.4891,4.4898,4.4896,4.4887,4.488,4.488,4.488,4.488,4.488,4.488,4.4265,4.4308,4.4337,4.4399,4.4436,4.4483,4.4509,4.4546,4.4582,4.4642,4.4681,4.4714,4.4761,4.4814,4.4857,4.4871,4.4888,4.4883,4.4899,4.4896,4.4898,4.4899,4.4892,4.4885,4.4885,4.4899,4.4899,4.4899]}]]